Regional Weather Roundup
Issued by NWS Kansas City/Pleasant Hill, MO

Home | Current Version | Previous Version | Text Only | Print | Product List | Glossary On
Versions: 1 2 3 4 5 6 7 8 9 10 11 12 13 14 15 16 17 18 19 20 21 22 23 24 25 26 27 28 29 30 31 32 33 34 35 36 37 38 39 40 41 42 43 44 45 46 47 48 49 50
000
ASUS43 KEAX 260611
RWREAX

WEATHER ROUNDUP FOR EASTERN KANSAS AND NORTHWEST MISSOURI
NATIONAL WEATHER SERVICE KANSAS CITY/PLEASANT HILL MO
1200 AM CST WED NOV 26 2014

KSZ040-057-103>105-MOZ028-029-037-043-260700-
...KANSAS CITY METROPOLITAN AREA...

CITY           SKY/WX    TMP DP  RH WIND       PRES   REMARKS
K.C. INTL      CLOUDY    39  22  50 S15       29.96F WCI  31
6HR MIN TEMP:  31; 6HR MAX TEMP:  39;

K.C. DOWNTOWN  CLOUDY    41  20  43 S12       29.98F WCI  34
6HR MIN TEMP:  38; 6HR MAX TEMP:  41;

LEES SUMMIT    CLOUDY    36  20  52 S10       30.00F WCI  28
6HR MIN TEMP:  35; 6HR MAX TEMP:  37;

OLATHE - IXD   CLOUDY    38  21  50 S16       29.97F WCI  29
6HR MIN TEMP:  33; 6HR MAX TEMP:  39;

OLATHE - OJC   CLOUDY    37  22  54 S12       29.97F WCI  29
6HR MIN TEMP:  34; 6HR MAX TEMP:  37;

LAWRENCE       CLOUDY    37  23  56 S7        29.97F WCI  32

$$

MOZ001>008-011>017-020>025-030>033-038>040-044>046-053-054-260700-
...NORTHERN AND CENTRAL MISSOURI...

CITY           SKY/WX    TMP DP  RH WIND       PRES   REMARKS
ST. JOSEPH     CLOUDY    39  23  52 S13       29.95F WCI  31
6HR MIN TEMP:  34; 6HR MAX TEMP:  39;

MOSBY          CLOUDY    36  21  55 SE6       30.00F WCI  31
WARRENSBURG    MOCLDY    32  21  64 SE7       30.04F WCI  26
WHITEMAN AFB   PTCLDY    33  22  63 S8        30.05F WCI  26
6HR MIN TEMP:  30; 6HR MAX TEMP:  33;

CLINTON        MOCLDY    34  25  69 SE8       30.07F WCI  27
SEDALIA        MOCLDY    32  21  64 S9        30.07F WCI  24
6HR MIN TEMP:  28; 6HR MAX TEMP:  35;

WARSAW         NOT AVBL
MARSHALL       MOCLDY    32  23  69 SE6       30.08F WCI  26
CHILLICOTHE      N/A     34  19  54 SE10      30.03F WCI  26
6HR MIN TEMP:  30; 6HR MAX TEMP:  34;

MOBERLY        PTCLDY    28  18  64 SE6       30.08F WCI  22
KIRKSVILLE     MOCLDY    27  21  78 SE8       30.07F WCI  19
6HR MIN TEMP:  23; 6HR MAX TEMP:  30;


$$

MOZ041-047>049-056>058-063>065-088>090-097-260700-
...EASTERN AND SOUTHERN MISSOURI...

CITY           SKY/WX    TMP DP  RH WIND       PRES   REMARKS
ST. LOUIS INTL PTCLDY    28  22  78 E6        30.15F WCI  22
6HR MIN TEMP:  27; 6HR MAX TEMP:  38;

SPIRIT OF STL  CLEAR     24  21  88 CALM      30.14F
COLUMBIA       PTCLDY    28  17  63 SE7       30.09F WCI  21
JEFFERSON CITY PTCLDY    23  19  85 CALM      30.11F
MEXICO         PTCLDY    28  25  86 SE7       30.10F WCI  21
ROLLA          PTCLDY    27  17  66 S7        30.08F WCI  19
LEBANON        PTCLDY    32  19  59 S7        30.08F WCI  26
OSAGE BEACH    PTCLDY    28  18  64 SE5       30.09F WCI  23
SPRINGFIELD    MOCLDY    31  21  66 SE12      30.08F WCI  22
BRANSON        PTCLDY    36  23  60 S5        30.11F WCI  32
NEVADA         MOCLDY    34  23  64 SE13      30.04F WCI  25
JOPLIN         MOCLDY    38  20  48 SE8       30.06F WCI  32
WEST PLAINS    CLEAR     25  18  74 CALM      30.12F

$$

IAZ060-094-KSZ022-034>040-054-083-096-NEZ052-066-093-260700-
...KANSAS...SOUTHEAST NEBRASKA AND IOWA...

CITY           SKY/WX    TMP DP  RH WIND       PRES   REMARKS
TOPEKA         CLOUDY    42  23  46 S8        29.95F
6HR MIN TEMP:  39; 6HR MAX TEMP:  42;

MANHATTAN      CLOUDY    44  27  51 SW16      29.91F
EMPORIA        CLOUDY    37  23  56 S17G25    29.95F WCI  27
CHANUTE        CLOUDY    39  25  57 S12       30.01F WCI  32
WICHITA        MOCLDY    42  27  55 S13       29.94F
OMAHA          LGT RAIN  40  27  59 S17       29.87S WCI  31
LINCOLN        CLOUDY    40  33  76 W7        29.86S
FALLS CITY     CLOUDY    40  24  53 S12G24    29.91S WCI  33
LAMONI         CLOUDY    32  17  54 S9        29.96F WCI  24
DES MOINES     CLOUDY    33  15  47 SE12      29.97F WCI  24

$$



USA.gov is the U.S. government's official web portal to all federal, state and local government web resources and services.